Preview of NWS' New Version of Forecast
This preview is not operational and should not be used for support decisions.

Regional Weather Roundup (RWR)

Issued by National Weather Service (NWS)

                            
000
ASUS45 KBOI 201110
RWRID 

IDAHO REGIONAL WEATHER ROUNDUP
NATIONAL WEATHER SERVICE BOISE ID
500 AM MDT SAT APR 20 2019

NOTE: "FAIR" INDICATES FEW OR NO CLOUDS BELOW 12000 FEET
WITH NO SIGNIFICANT WEATHER AND/OR OBSTRUCTIONS TO VISIBILITY

IDZ012-014-201200-
SOUTHWEST IDAHO

  
CITY           SKY/WX    TMP DP  RH WIND       PRES   REMARKS
BOISE          CLOUDY    57  49  74 W13       29.76R                  
CALDWELL       CLOUDY    58  49  72 W17G25    29.75R                  
MOUNTAIN HOME  PTCLDY    46  46 100 NW9       29.74R                  
$$

IDZ016-017-201200-
SOUTHCENTRAL IDAHO

  
CITY           SKY/WX    TMP DP  RH WIND       PRES   REMARKS
BURLEY         CLOUDY    55  38  52 SW6       29.77S                  
JEROME         CLOUDY    59  38  45 S6        29.78R                  
TWIN FALLS     CLOUDY    61  36  39 S12       29.78R                  
$$

IDZ019>023-201200-
SOUTHEAST IDAHO

  
CITY           SKY/WX    TMP DP  RH WIND       PRES   REMARKS
IDAHO FALLS    PTCLDY    43  34  70 N6        29.83S                  
POCATELLO      MOCLDY    55  39  54 SE5       29.80F                  
REXBURG        PTCLDY    45  36  70 NE5       29.83F                  
$$

IDZ006-010-011-018-031-032-201200-
CENTRAL IDAHO MOUNTAINS

  
CITY           SKY/WX    TMP DP  RH WIND       PRES   REMARKS
MCCALL         CLOUDY    41  38  89 N3        29.76F                  
HAILEY         PTCLDY    45  36  70 NW9       29.86R                  
STANLEY          N/A     37  31  78 CALM      29.92R                  
SALMON         CLOUDY    55  41  59 VRB5      29.77F                  
CHALLIS        LGT RAIN  49  38  65 SE6       29.79F                  
$$

IDZ002-004-006-007-026-201200-
NORTHERN IDAHO

  
CITY           SKY/WX    TMP DP  RH WIND       PRES   REMARKS
LEWISTON       LGT RAIN  54  51  90 NW3       29.83R                  
LOWELL           N/A     53  53 100 N3        29.80R                  
COEUR D'ALENE  LGT RAIN  49  46  90 NE5       29.83R                  
MULLAN PASS    LGT RAIN  38  35  89 CALM      29.84S                  
$$